Regional Weather Roundup
Issued by NWS

Home | Current Version | Previous Version | Text Only | Print | Product List | Glossary Off
Versions: 1 2 3 4 5 6 7 8 9 10 11 12 13 14 15 16 17 18 19 20 21 22 23 24 25 26 27 28 29 30 31 32 33 34 35 36 37 38 39 40 41 42 43 44 45 46 47 48 49 50

582
ASUS44 KJAN 171903
RWRMS

MISSISSIPPI HOURLY WEATHER ROUNDUP
NATIONAL WEATHER SERVICE JACKSON MS
200 PM CDT FRI APR 17 2015

NOTE: "FAIR: INDICATES FEW OR NO CLOUDS BELOW 12,000 FEET WITH NO
SIGNIFICANT WEATHER AND/OR OBSTRUCTIONS TO VISIBILITY.

MSZ001>002-007>008-010>013-018>021-025>028-034>036-172000-
NORTHWEST MISSISSIPPI

CITY           SKY/WX    TMP DP  RH WIND       PRES   REMARKS
CLARKSDALE       N/A     70  68  94 CALM      30.04F
CLEVELAND      CLOUDY    71  68  92 NE9       30.01F
GREENWOOD      LGT RAIN  68  64  87 NE16      30.00F
GREENVILLE     CLOUDY    74  63  68 E9        30.00F
OLIVE BRANCH   CLOUDY    66  66 100 E6        30.04F
OXFORD         CLOUDY    63  63 100 E6        30.06F
TUNICA         MOCLDY    72  66  83 SE9       30.02F
$$

MSZ003>006-009-014>017-022>024-029>033-037>039-172000-
NORTHEAST MISSISSIPPI

CITY           SKY/WX    TMP DP  RH WIND       PRES   REMARKS
COLUMBUS AFB   DRIZZLE   64  64 100 NE7       30.03F
CORINTH        CLOUDY    66  61  82 SE5       30.04F
GOLDN TRIANGLE CLOUDY    66  61  82 E9        30.02F
STARKVILLE     CLOUDY    64  63  94 NE7       30.03F
TUPELO         LGT RAIN  64  62  93 SE9       30.03F
$$

MSZ040-058-172000-
CENTRAL MISSISSIPPI

CITY           SKY/WX    TMP DP  RH WIND       PRES   REMARKS
JACKSON INTL   PTSUNNY   76  66  71 CALM      29.96F
JACKSON HAWKNS MOSUNNY   76  67  73 VRB3      29.97F
MERIDIAN KEY   PTSUNNY   76  62  62 VRB3      29.97F
MERIDIAN NAS   CLOUDY    71  64  78 NE7       29.99F
RAYMOND        MOCLDY    79  73  83 CALM      29.96F
VICKSBURG      CLOUDY    79  63  57 VRB5      29.97F
$$

MSZ059>079-172000-
SOUTH MISSISSIPPI

CITY           SKY/WX    TMP DP  RH WIND       PRES   REMARKS
BROOKHAVEN     MOCLDY    81  75  83 CALM      29.98F
HATTIESBURG    PTSUNNY   80  68  66 SW3       29.96F
MCCOMB         PTSUNNY   79  68  69 S5        29.96F
NATCHEZ        CLOUDY    77  66  69 W5        29.98F
PINE BELT      CLOUDY    77  66  69 E3        29.97F
$$

MSZ080>082-172000-
COASTAL MISSISSIPPI

CITY           SKY/WX    TMP DP  RH WIND       PRES   REMARKS
BAY ST LOUIS   PTSUNNY   81  66  61 MISG      29.96F
BILOXI         PTSUNNY   78  74  86 W14G21    29.95F
PASCAGOULA     CLOUDY    78  71  79 SW9G17    29.95F
GULFPORT       CLOUDY    79  70  74 SW12G17   29.95F
$$



USA.gov is the U.S. government's official web portal to all federal, state and local government web resources and services.